De Queen, AR

7:29 PM CDT on October 18, 2017 (GMT -0500)
Helms Sevier County

Weather History for KDEQ - May, 2014

Change the Weather History Date:

Monday, May 19, 2014

  Actual Average Record
Temperature  
Mean Temperature 72 °F 71 °F  
Max Temperature 83 °F 82 °F 96 °F (1956)
Min Temperature 61 °F 60 °F 44 °F (2002)
Degree Days  
Heating Degree Days 0 0  
Month to date heating degree days 51 21  
Since 1 July heating degree days 3464 3042  
Cooling Degree Days 7 6  
Month to date cooling degree days 70 81  
Year to date cooling degree days 108 128  
Growing Degree Days 22 (Base 50)    
Moisture  
Dew Point 62 °F    
Average Humidity 76    
Maximum Humidity 100    
Minimum Humidity 51    
Precipitation  
Precipitation 0.00 in 0.17 in 2.45 in (2000)
Month to date precipitation 0.89 3.91  
Year to date precipitation 9.29 19.48  
Snow  
Snow 0.00 in - - ()
Month to date snowfall 0.0  
Since 1 July snowfall 1.2  
Snow Depth 0.00 in    
Sea Level Pressure  
Sea Level Pressure 30.01 in    
Wind  
Wind Speed 8 mph (SSE)    
Max Wind Speed 16 mph    
Max Gust Speed 24 mph    
Visibility 9 miles    
Events      
T = Trace of Precipitation, MM = Missing Value Source: NWS Daily Summary

Daily Weather History Graph

Daily Weather History Graph

Search for Another Location

Airport or City:

Trip Planner

Search our weather history database for the weather conditions in past years. The results will help you decide how hot, cold, wet, or windy it might be!

Date:

Astronomy

May. 19, 2014 Rise Set
Actual Time 6:13 AM CDT 8:15 PM CDT
Civil Twilight 5:45 AM CDT 8:43 PM CDT
Nautical Twilight 5:11 AM CDT 9:17 PM CDT
Astronomical Twilight 4:35 AM CDT 9:53 PM CDT
Moon 12:06 AM CDT 11:07 AM CDT
Length of Visible Light 14h 57m
Length of Day
14h 01m
Waning Gibbous, 71% of the Moon is Illuminated
May 19
Waning Gibbous
May 21
Last Quarter
May 28
New
Jun 5
First Quarter
Jun 12
Full

Hourly Weather History & Observations

Time (CDT) Temp. Heat Index Dew Point Humidity Pressure Visibility Wind Dir Wind Speed Gust Speed Precip Events Conditions
12:53 AM 64.0 °F - 61.0 °F 90% 30.04 in 10.0 mi East 8.1 mph - N/A   Partly Cloudy
1:53 AM 64.0 °F - 61.0 °F 90% 30.03 in 10.0 mi East 6.9 mph - N/A   Scattered Clouds
2:53 AM 63.0 °F - 61.0 °F 93% 30.02 in 9.0 mi East 4.6 mph - N/A   Scattered Clouds
3:53 AM 63.0 °F - 61.0 °F 93% 30.02 in 8.0 mi East 6.9 mph - N/A   Mostly Cloudy
4:53 AM 62.1 °F - 60.1 °F 93% 30.02 in 7.0 mi East 4.6 mph - N/A   Clear
5:53 AM 61.0 °F - 60.1 °F 97% 30.04 in 6.0 mi East 4.6 mph - N/A   Clear
6:53 AM 61.0 °F - 60.1 °F 97% 30.05 in 5.0 mi East 5.8 mph - N/A   Clear
9:53 AM 69.1 °F - 62.1 °F 78% 30.09 in 10.0 mi SW 15.0 mph 19.6 mph N/A   Overcast
10:17 AM 71.1 °F - 62.1 °F 73% 30.09 in 10.0 mi South 8.1 mph 16.1 mph N/A   Scattered Clouds
10:53 AM 73.0 °F - 62.1 °F 68% 30.07 in 10.0 mi South 10.4 mph 17.3 mph N/A   Partly Cloudy
11:53 AM 75.9 °F - 63.0 °F 64% 30.06 in 10.0 mi SSW 12.7 mph 17.3 mph N/A   Scattered Clouds
1:53 PM 79.0 °F - 62.1 °F 56% 30.01 in 10.0 mi SSW 12.7 mph 20.7 mph N/A   Scattered Clouds
2:53 PM 80.1 °F 81.2 °F 62.1 °F 54% 29.99 in 10.0 mi South 10.4 mph 19.6 mph N/A   Mostly Cloudy
3:53 PM 82.0 °F 83.0 °F 62.1 °F 51% 29.97 in 10.0 mi South 13.8 mph 20.7 mph N/A   Scattered Clouds
4:53 PM 81.0 °F 81.7 °F 61.0 °F 50% 29.95 in 10.0 mi South 10.4 mph 19.6 mph N/A   Partly Cloudy
5:53 PM 81.0 °F 81.7 °F 61.0 °F 50% 29.94 in 10.0 mi SSW 13.8 mph 21.9 mph N/A   Clear
6:53 PM 80.1 °F 81.2 °F 62.1 °F 54% 29.94 in 10.0 mi South 9.2 mph - N/A   Clear
7:53 PM 77.0 °F - 62.1 °F 60% 29.94 in 10.0 mi South 3.5 mph - N/A   Clear
8:53 PM 73.9 °F - 61.0 °F 64% 29.95 in 10.0 mi SE 3.5 mph - N/A   Clear
9:53 PM 73.0 °F - 62.1 °F 68% 29.97 in 10.0 mi SSE 4.6 mph - N/A   Clear
10:53 PM 72.0 °F - 62.1 °F 71% 29.97 in 10.0 mi SE 4.6 mph - N/A   Clear
11:53 PM 71.1 °F - 62.1 °F 73% 29.98 in 10.0 mi SSE 3.5 mph - N/A   Clear